Вернуться в каталог

COSMOS 1275 DEB

АктивенPO
NORAD 42152·DEBRIS·🇷🇺 Russia

Запущен Jun 4, 1981 с Plesetsk Cosmodrome

Loading…

Ближайшие Пролёты (ближайшие 24 часа)

TLE

УстаревшееSource: Space-Track

Эпоха: Aug 25, 2026, 02:56 UTC

1 42152U 81053RQ  26237.12254326  .00001372  00000-0  85086-3 0  9999
2 42152  83.1202  23.1692 0055626 342.2573  17.6655 14.03711881650549

Отслеживайте COSMOS 1275 DEB в реальном времени с AllMySat

Download on the App Store